Lapse_Rate
5.1 5.3 5.2 5.0 4.9 5.1 4.9 5.1 5.3 5.6 5.7 5.7 5.9 5.8 5.8 5.7 5.8 5.8 5.8 5.8 5.9 5.9 6.2 6.2 6.3 6.7 6.4 6.7 6.8 6.2 7.1 7.1 6.8 6.8 7.0 7.0 7.0 7.1 7.1 7.1 6.9 6.7 7.1 7.1 7.1 7.4 7.4
4.9 5.2 5.4 5.4 5.1 5.1 5.2 5.1 5.2 5.3 5.5 5.7 5.7 5.8 5.7 5.7 5.7 5.7 5.8 5.8 5.9 5.8 5.9 5.9 6.0 6.3 6.4 6.8 6.7 6.4 6.7 6.9 7.0 6.9 6.9 6.8 7.0 6.9 6.8 7.1 6.9 6.8 6.8 7.0 7.1 7.2 7.1
4.9 5.0 5.3 5.7 5.2 5.3 5.2 4.9 5.2 5.4 5.5 5.7 5.7 5.8 5.8 5.8 5.7 5.7 5.8 5.8 5.9 5.8 6.0 5.9 6.1 6.3 6.3 6.9 6.5 6.7 6.7 6.6 6.9 6.8 6.8 6.7 6.8 6.6 6.7 6.9 6.7 6.8 6.7 6.9 7.0 6.7 6.8
4.9 4.9 5.1 5.7 5.3 5.4 5.2 5.4 5.1 5.2 5.2 5.4 5.6 5.7 5.8 5.8 5.8 5.9 5.8 5.8 5.8 5.5 5.8 6.0 5.9 6.2 6.4 6.8 6.6 6.7 6.4 6.8 6.7 6.6 6.7 6.5 6.4 6.4 6.4 6.3 6.4 6.4 6.3 6.2 6.7 6.8 6.6
4.4 4.6 4.7 5.1 5.5 5.6 5.5 5.3 5.3 5.4 5.4 5.2 5.3 5.6 5.7 5.9 5.8 5.9 5.6 5.6 5.6 5.8 5.8 5.7 5.8 5.9 6.3 6.6 6.8 6.7 6.6 6.4 6.5 6.4 6.5 6.2 6.0 5.8 5.4 5.9 6.2 5.9 6.0 6.0 6.0 6.3 6.5
3.1 4.3 4.6 4.7 5.0 5.2 5.5 5.4 5.5 5.2 5.4 5.5 5.5 5.5 5.7 5.7 5.9 5.8 5.6 5.6 5.5 5.6 5.5 5.4 5.5 5.9 6.0 5.9 6.2 6.5 6.4 6.3 6.2 5.8 6.0 6.1 5.6 5.3 5.7 6.1 5.3 5.9 5.7 5.5 5.4 6.1 6.0
3.0 3.2 3.9 4.7 4.8 4.9 4.9 4.7 5.3 5.1 5.8 5.6 5.8 5.7 5.7 5.6 5.7 5.5 5.6 5.7 5.2 5.2 5.5 6.1 5.7 6.1 5.6 5.6 5.8 5.9 6.0 6.0 5.9 5.9 6.4 6.4 5.5 6.1 6.8 6.0 5.7 5.4 5.0 5.0 5.7 6.0 5.5
2.9 3.3 2.9 3.6 4.3 4.8 4.8 4.4 4.8 5.0 5.3 5.3 5.8 5.9 5.7 5.5 5.3 5.2 5.4 5.3 5.5 5.2 5.5 5.8 5.6 5.4 5.8 5.3 5.2 5.6 5.8 5.8 6.0 6.2 5.8 5.5 5.9 6.5 5.9 5.5 5.2 5.1 5.1 5.5 5.6 5.9 5.7
2.7 3.0 3.5 3.1 3.7 3.9 4.8 4.6 4.5 4.3 5.0 5.0 5.7 6.2 5.6 5.7 5.5 5.4 5.4 5.6 5.4 5.3 5.1 5.4 5.8 5.3 6.2 5.4 5.3 5.4 5.7 5.7 5.9 5.9 5.7 5.5 5.6 6.1 5.9 5.5 5.1 5.5 5.3 5.6 5.6 5.9 6.0
2.8 2.7 3.0 3.5 3.3 3.9 4.0 4.6 4.3 4.6 4.8 5.6 5.8 5.9 5.3 5.6 5.2 5.4 5.2 5.5 5.6 5.2 4.7 4.8 6.2 6.0 6.2 6.2 5.1 5.6 5.8 5.5 5.5 5.6 5.8 5.1 5.6 5.9 5.4 5.6 5.5 5.3 5.8 5.8 6.0 5.6 5.8
2.9 2.9 3.1 3.4 3.8 4.0 3.7 4.3 4.9 4.7 4.6 5.4 6.1 6.0 5.3 5.3 5.1 5.5 5.9 5.8 5.8 5.5 5.6 5.8 5.4 5.4 5.9 6.2 5.8 5.6 6.3 5.5 5.7 5.8 5.7 5.8 5.9 6.2 5.8 6.2 5.9 5.6 6.0 6.1 6.2 6.2 6.0
3.1 3.1 3.1 3.4 3.6 4.0 4.2 4.0 4.5 4.8 4.8 5.0 5.8 6.2 5.7 5.2 5.4 5.5 5.9 6.0 5.7 5.4 4.6 5.3 5.0 5.4 5.4 5.9 5.9 5.1 5.6 5.3 5.4 5.4 5.4 5.7 5.6 5.8 5.6 5.8 6.0 5.9 6.1 6.4 6.3 6.3 5.1
3.3 3.3 3.3 3.5 3.9 4.0 4.3 4.4 4.4 4.6 4.8 5.0 5.4 6.1 5.5 5.4 5.9 5.7 5.9 5.9 5.0 4.9 5.1 5.6 5.0 5.5 6.1 5.8 5.6 4.7 5.4 5.1 5.1 4.7 4.9 5.2 5.8 5.9 6.1 5.8 6.0 6.0 6.1 6.0 5.5 5.4 4.8
3.5 3.3 3.3 3.5 3.7 3.9 4.3 4.4 4.0 4.4 4.7 5.0 5.0 5.8 5.7 5.7 6.0 6.0 5.9 5.9 4.6 5.2 5.8 5.8 5.6 5.7 6.2 6.1 5.3 4.6 5.4 5.3 4.9 5.4 5.3 4.9 5.2 6.4 6.2 6.2 6.6 6.2 6.1 6.3 5.6 5.2 5.5
4.4 3.6 3.3 3.4 3.6 3.8 4.5 4.7 4.6 4.2 4.7 5.1 5.2 5.3 5.7 5.8 6.1 6.0 6.2 5.8 5.3 5.2 6.0 6.4 5.5 5.9 5.5 5.6 5.7 5.3 5.7 5.5 5.6 5.3 5.4 5.5 5.5 6.6 6.6 6.8 6.9 6.3 6.3 7.0 7.1 5.8 5.4
6.1 4.5 3.8 3.5 3.7 3.8 4.2 4.6 4.7 4.6 4.8 4.9 5.1 6.0 5.9 5.8 6.3 6.0 6.7 6.1 5.7 6.1 6.2 6.1 6.1 6.1 6.2 6.0 5.9 5.5 5.5 5.6 6.0 5.9 5.6 6.0 6.1 6.8 6.9 6.8 6.9 6.7 7.1 6.9 6.9 5.4 5.3
7.2 6.5 4.5 3.9 3.6 3.8 3.8 4.4 4.6 5.0 5.1 5.0 5.9 6.2 6.1 5.7 6.4 6.2 6.1 5.7 5.2 6.4 5.8 5.6 5.8 6.8 6.6 6.3 5.8 5.9 5.8 5.8 6.1 6.5 6.2 6.2 6.4 6.8 7.0 7.1 7.2 7.0 6.7 7.2 7.4 7.1 5.3
7.7 7.6 6.4 4.5 3.9 3.8 4.0 4.7 4.9 5.2 5.1 5.5 5.6 6.1 6.4 6.2 6.1 6.1 5.7 5.8 5.5 5.5 5.7 5.8 5.9 6.4 6.8 6.5 6.3 6.1 6.0 6.8 7.1 6.7 6.5 6.8 6.4 6.4 6.8 7.1 7.2 7.3 7.6 7.3 7.3 6.3 6.5
7.6 7.6 7.6 6.5 4.5 4.0 3.9 4.6 4.9 5.3 5.4 5.6 6.3 5.6 6.4 6.1 6.3 6.1 6.0 5.9 5.7 5.8 5.7 5.9 6.1 6.1 6.3 6.6 6.5 6.4 6.7 7.1 7.2 7.4 7.0 6.9 6.4 6.6 6.6 6.9 6.9 6.8 7.1 7.4 7.5 7.4 7.1
7.5 7.7 7.7 7.1 5.2 4.5 4.3 4.4 5.0 5.2 5.5 5.9 6.5 6.6 6.3 6.6 6.6 6.4 5.9 6.0 5.7 5.4 5.7 5.7 6.5 6.1 6.0 6.1 6.5 6.2 6.5 6.6 7.0 7.2 7.5 7.4 7.3 7.1 7.0 7.4 7.3 7.3 7.2 7.5 7.5 7.1 7.0
7.1 7.4 7.5 7.4 6.2 4.7 5.2 5.4 5.8 5.9 5.7 5.7 6.7 6.7 6.5 6.3 5.6 6.1 6.2 6.0 5.9 5.8 5.7 5.6 5.7 6.3 6.3 6.3 6.7 6.0 6.2 6.4 6.8 7.2 7.3 7.2 7.1 7.3 7.3 7.4 7.4 7.4 7.4 7.0 6.9 7.0 6.8
6.5 6.6 7.3 6.8 6.7 6.3 6.4 6.6 6.4 6.1 6.3 6.3 6.7 6.5 6.2 6.2 6.1 6.1 6.0 6.0 5.8 5.9 5.9 5.7 5.8 5.7 6.4 6.4 6.5 6.3 6.8 6.2 6.9 6.9 6.9 7.1 7.4 7.3 7.0 6.9 7.2 7.2 6.9 6.5 6.4 6.2 6.6
6.9 7.2 6.7 6.4 6.3 6.3 6.4 6.8 6.7 6.4 6.4 6.3 6.4 6.1 6.0 6.4 6.1 6.1 5.8 6.0 6.0 5.9 5.9 6.2 6.1 6.0 5.9 6.1 6.1 6.0 6.1 6.4 6.6 6.6 6.9 7.0 7.2 6.8 6.4 6.4 6.8 6.6 6.6 6.6 6.9 7.0 7.2
6.4 6.2 6.7 6.8 6.5 6.8 6.8 6.8 6.9 6.8 6.7 6.4 6.3 6.3 5.8 5.9 5.8 6.1 5.9 6.0 6.0 6.0 5.9 5.8 5.8 5.9 5.6 5.7 5.6 5.7 5.8 5.9 6.0 6.2 6.2 6.1 6.6 6.2 6.1 6.0 5.7 6.5 6.5 6.7 7.3 7.6 7.6
6.1 6.1 6.1 6.2 6.2 6.6 6.7 7.0 6.9 6.9 6.9 6.5 6.4 6.6 6.5 6.3 6.2 5.8 6.1 6.3 6.0 5.9 6.1 5.8 5.4 5.6 5.5 5.5 5.6 5.8 5.7 5.6 5.7 5.9 5.8 6.1 6.2 5.4 5.3 5.5 6.4 6.6 6.7 7.0 7.5 7.4 7.3
6.1 5.9 6.0 6.0 5.7 5.9 6.4 6.1 6.1 6.0 6.3 6.7 6.1 6.4 6.2 6.3 6.1 6.3 5.9 6.2 6.2 5.8 5.8 6.1 6.0 5.7 5.7 5.6 5.6 5.5 5.4 5.5 5.7 5.8 6.1 6.1 6.1 6.3 5.7 5.8 5.2 6.9 6.8 7.0 6.8 6.6 6.9
6.5 6.2 6.0 5.8 5.8 5.8 5.6 5.6 5.8 5.6 5.5 5.9 6.2 6.2 6.0 6.1 5.9 5.6 5.7 5.7 5.7 5.7 5.9 5.5 5.6 5.5 5.6 5.7 5.6 5.7 5.6 5.6 5.6 5.6 5.5 5.8 6.1 6.3 6.1 6.1 6.6 6.8 6.3 6.4 6.2 6.8 7.2
7.0 6.8 6.7 6.4 6.0 5.7 5.6 5.6 5.7 6.1 6.0 5.5 5.4 5.5 5.8 5.7 5.8 5.5 5.6 5.9 5.7 5.9 6.1 5.6 5.5 5.3 5.4 5.9 6.1 6.0 6.1 6.3 6.4 6.4 6.4 6.6 6.3 6.2 6.1 5.9 5.9 6.8 6.4 6.5 7.1 7.1 6.8
6.5 6.5 6.6 6.7 6.7 6.9 6.9 6.5 6.1 6.1 5.8 5.9 6.0 5.6 5.5 5.7 5.8 5.8 5.6 5.8 5.9 6.1 6.4 6.2 6.4 6.6 6.4 6.4 6.5 6.6 6.3 6.4 6.6 6.4 6.6 6.6 6.8 6.9 6.8 6.8 7.1 7.1 6.9 6.7 6.9 7.1 7.3
Wind_Speed
22 19 26 25 28 29 29 28 28 27 26 25 23 22 21 19 18 16 13 10 8 5 3 5 9 15 6 4 8 5 7 7 5 4 3 3 4 2 1 4 6 4 3 8 7 9 7
23 24 20 25 27 28 30 28 28 27 27 26 25 24 21 19 18 15 13 11 8 6 2 3 7 8 3 3 4 3 10 7 5 4 5 3 3 2 2 3 0 4 6 8 7 10 7
21 23 22 21 23 29 29 29 28 28 27 27 26 26 25 23 21 18 15 12 9 6 2 1 5 2 1 13 3 13 10 3 2 1 4 3 3 5 2 4 3 5 6 8 5 4 4
19 22 23 22 21 23 29 28 30 29 28 27 26 25 25 24 24 19 16 12 8 6 2 1 3 2 6 5 9 8 3 6 6 6 5 7 3 1 3 4 6 3 2 4 5 4 5
22 19 23 23 22 21 23 27 29 30 29 28 27 25 25 26 24 21 15 11 7 5 3 2 2 3 9 8 3 7 8 3 3 5 5 2 3 3 0 3 4 3 3 3 7 4 4
27 22 19 23 23 22 22 27 28 30 30 29 28 27 26 26 24 19 15 12 9 8 1 2 2 3 5 4 4 3 4 3 3 5 3 3 3 3 1 4 4 5 3 3 4 6 3
28 25 22 21 23 24 24 21 23 27 27 28 29 27 26 25 24 25 20 7 3 2 5 8 7 3 3 5 4 1 4 5 3 3 5 4 4 10 10 9 3 2 3 4 5 11 4
29 29 25 21 25 25 25 24 23 24 26 28 29 28 26 24 28 32 14 5 6 5 3 18 15 11 10 3 5 4 2 5 5 6 4 2 12 9 6 5 4 6 7 8 7 10 5
29 30 27 25 20 20 24 25 24 22 26 27 28 27 29 29 28 16 15 10 4 3 3 5 11 12 11 9 12 12 3 5 5 7 8 7 5 6 9 5 6 9 6 7 8 6 4
28 28 28 29 26 22 21 25 24 24 23 25 26 28 29 33 17 10 14 8 6 4 3 6 7 8 9 6 8 17 13 7 6 12 7 8 13 6 5 6 10 5 9 13 11 3 2
26 26 29 30 27 26 22 21 25 24 26 24 24 25 32 34 12 15 9 15 8 5 4 6 6 6 10 11 4 10 10 6 11 9 7 8 4 7 9 11 8 8 9 8 5 2 3
27 26 27 28 29 27 23 22 21 24 24 24 26 29 38 10 4 9 23 14 5 6 9 2 7 7 8 12 3 4 7 3 5 3 2 7 1 1 5 3 6 3 3 5 4 2 2
26 26 26 26 29 28 22 21 24 23 25 26 28 34 28 10 8 26 18 8 6 3 0 6 7 8 8 6 8 5 13 10 8 7 10 0 13 4 4 2 1 3 5 2 3 1 5
27 26 26 25 26 26 25 22 24 25 25 26 29 32 24 7 26 25 9 6 8 10 10 2 8 9 9 7 6 5 13 15 9 4 3 10 5 12 6 13 6 6 7 5 6 4 3
27 26 26 26 24 25 26 26 26 25 26 27 25 10 7 9 28 15 13 11 8 5 8 6 10 6 5 4 7 6 8 16 14 8 7 5 6 2 6 6 14 5 5 6 6 3 3
28 26 26 26 27 25 25 24 24 26 26 26 10 8 10 19 27 14 15 18 12 8 3 9 11 7 13 12 7 13 11 9 7 16 4 4 1 1 3 5 3 8 7 3 3 4 5
28 27 27 26 27 26 26 25 25 24 26 28 10 4 4 23 13 11 13 9 10 12 8 9 9 6 6 9 10 14 9 5 16 14 15 5 3 4 2 4 8 4 4 3 5 4 5
28 28 27 27 27 26 26 28 26 26 27 21 9 10 3 6 12 3 8 9 5 8 11 4 2 3 6 9 12 14 11 9 10 14 15 11 4 4 5 6 3 4 8 8 5 6 2
27 27 26 27 28 27 27 27 26 26 29 13 4 6 1 2 17 13 5 9 12 12 12 10 5 9 7 4 6 12 9 1 3 13 15 9 5 3 5 4 3 3 2 4 5 3 6
26 26 26 26 27 27 27 28 28 28 31 11 4 5 2 2 2 17 12 19 9 6 11 6 8 5 3 6 3 4 4 1 2 3 6 8 4 7 10 3 5 5 4 4 5 3 6
22 26 27 26 27 28 24 26 29 31 32 12 3 4 3 9 15 19 18 10 17 8 4 11 8 11 6 6 5 5 4 2 5 4 4 5 5 3 3 3 2 4 8 7 4 7 6
11 29 28 26 23 25 26 27 28 29 28 4 6 4 2 5 10 16 17 14 20 7 9 11 7 16 14 7 13 13 11 5 6 2 3 0 4 4 3 3 5 1 6 6 6 5 5
24 26 30 31 24 25 24 23 21 24 14 3 1 3 4 5 12 15 12 8 13 16 5 9 9 7 9 6 4 4 4 5 6 7 3 4 6 4 4 4 6 7 10 10 6 6 8
25 27 27 30 27 26 25 20 14 13 12 4 2 3 4 3 10 13 15 12 19 9 8 13 7 7 4 3 6 7 12 12 8 7 4 3 4 3 3 5 5 5 4 8 9 7 7
24 25 26 27 24 24 22 17 10 13 19 7 2 3 2 4 7 12 20 13 12 12 6 7 5 3 9 6 4 3 3 2 1 1 4 5 4 4 5 4 6 5 6 6 7 7 7
23 24 24 24 23 20 20 21 19 17 16 5 2 2 3 7 2 12 14 18 10 5 3 5 3 5 5 3 3 4 5 4 5 6 5 5 6 4 3 5 9 5 3 7 6 5 7
22 23 23 22 22 20 18 17 17 15 10 5 3 4 4 5 1 8 4 5 6 5 4 5 4 4 5 2 2 3 3 3 7 10 6 4 2 6 4 2 6 6 5 4 6 6 7
21 21 21 21 21 20 18 17 16 15 13 5 1 2 4 3 3 1 4 5 4 2 6 8 5 1 2 2 3 3 2 3 2 4 6 7 7 4 3 3 9 7 3 9 6 3 7
18 18 18 19 20 21 20 17 16 14 13 6 4 4 4 5 3 1 5 3 5 5 7 1 3 4 4 4 0 3 2 2 4 3 2 4 6 6 8 7 4 2 2 4 6 6 5
Wind_Direction
240 254 221 217 212 209 209 207 206 204 204 206 209 212 214 215 218 223 221 224 238 256 308 355 350 352 4 13 255 357 15 336 330 344 32 9 49 30 352 326 339 194 332 314 282 281 265
238 234 237 222 214 210 209 208 207 206 204 205 205 209 211 215 217 218 222 222 227 238 252 340 354 355 55 296 288 25 19 350 27 20 359 30 106 263 301 291 175 311 290 285 290 281 268
260 237 229 224 226 211 211 208 205 204 204 203 204 203 206 209 213 212 212 216 216 227 219 330 348 23 201 242 268 310 325 259 157 31 331 310 106 53 350 303 342 292 306 317 262 272 274
254 253 237 226 217 223 210 209 206 206 204 203 203 201 202 204 207 207 206 204 204 207 177 130 359 73 250 263 286 280 171 282 213 219 195 260 271 260 173 286 347 330 1 349 292 331 279
256 254 248 235 221 213 218 207 209 206 203 201 200 198 198 200 204 200 193 188 179 150 130 167 47 76 264 301 276 271 174 226 143 185 198 256 107 186 42 87 353 335 257 241 317 335 313
251 248 249 243 231 222 214 216 203 205 203 199 197 193 195 195 191 186 165 133 126 114 136 206 266 352 263 268 235 204 161 145 104 134 107 144 73 140 137 116 227 229 233 248 253 294 348
243 244 243 245 237 222 218 209 209 202 203 198 195 193 190 186 171 152 124 119 136 245 219 199 193 236 276 308 312 140 154 129 111 86 162 177 165 213 187 193 207 346 303 300 266 278 310
244 236 235 243 235 228 216 211 214 204 202 196 195 189 182 173 158 155 159 180 184 172 246 230 243 244 274 49 323 289 198 167 146 184 156 108 237 223 185 208 230 267 280 280 281 266 175
242 242 230 226 238 231 224 211 204 202 199 199 191 187 178 167 152 160 191 178 173 122 309 244 211 220 227 203 220 251 180 193 179 176 188 187 241 183 177 200 213 237 213 248 226 284 296
238 238 239 230 226 232 230 217 207 202 202 199 191 184 172 147 146 174 206 187 153 98 300 251 210 237 185 192 254 198 194 164 215 190 181 227 243 243 179 223 192 242 209 239 250 213 235
237 236 237 231 221 222 225 224 207 201 198 194 185 179 158 160 142 183 171 156 134 67 243 192 176 170 163 178 148 205 184 158 192 181 149 228 217 202 208 224 174 228 248 211 215 183 116
232 232 232 231 223 217 208 217 214 206 195 188 186 170 168 168 121 159 146 135 111 168 233 237 164 160 148 207 266 97 165 97 134 183 198 214 287 242 203 197 206 197 118 47 43 95 302
232 228 226 225 223 217 208 213 214 207 195 185 183 173 172 175 175 145 142 135 193 208 296 199 181 169 172 167 204 167 173 185 166 173 227 170 253 235 173 246 225 103 96 340 334 327 228
229 228 222 222 221 221 211 215 215 206 194 185 181 173 191 184 143 147 158 177 225 168 218 192 165 159 188 143 206 171 166 193 228 137 120 196 278 191 187 197 178 182 161 157 212 215 259
224 224 220 218 219 218 209 212 210 201 191 185 173 187 192 180 158 163 171 206 196 178 187 184 142 151 206 175 156 171 184 206 203 172 180 166 251 221 183 156 168 176 191 177 110 34 40
218 220 219 215 217 216 212 207 211 200 183 180 185 198 188 162 169 172 204 205 202 202 285 212 173 169 183 177 168 187 173 193 197 193 165 209 268 255 172 106 193 180 156 84 347 162 223
217 218 216 217 215 215 210 209 200 191 183 181 195 226 141 160 181 189 214 193 208 188 200 230 211 178 170 171 186 192 203 211 191 180 185 160 129 291 136 197 166 123 179 78 129 155 182
215 214 215 212 212 213 210 207 203 193 176 177 208 202 235 183 207 134 212 154 170 197 200 127 305 239 175 163 187 196 216 205 191 164 192 196 158 206 226 305 233 162 193 159 161 207 244
209 209 210 213 211 211 210 206 202 187 175 184 189 174 326 224 207 202 177 171 174 175 189 151 195 225 206 178 168 193 204 301 224 169 174 168 200 114 339 339 321 167 126 114 103 55 184
210 209 210 210 210 211 209 201 196 190 183 179 158 135 139 290 253 195 208 214 186 163 198 147 164 253 164 198 78 183 158 25 343 116 115 107 116 188 214 187 141 157 140 127 127 139 156
210 209 205 208 206 207 205 196 192 188 185 173 208 175 172 182 200 191 189 181 198 167 187 153 190 191 174 186 178 193 124 154 354 148 84 123 134 99 33 71 85 126 156 150 127 149 156
75 203 208 203 198 208 197 194 192 181 167 150 150 151 94 166 164 177 181 200 187 149 159 180 199 184 188 180 192 188 159 180 179 210 125 239 136 114 36 14 51 203 174 165 169 178 195
59 64 92 102 105 105 116 115 121 143 128 117 289 60 102 142 170 174 187 161 178 145 352 169 166 134 140 158 112 44 53 114 144 142 147 120 131 129 170 97 40 305 186 185 186 189 161
71 77 70 80 85 88 86 83 84 94 119 108 74 102 119 158 170 178 154 163 154 154 131 137 120 113 213 140 82 36 34 47 56 54 61 97 89 68 133 92 198 238 170 182 188 184 200
63 74 84 84 83 89 100 103 104 89 94 98 122 119 120 114 125 158 145 139 126 110 105 126 156 170 141 63 80 84 1 74 97 209 131 154 138 132 150 198 320 281 219 185 170 219 196
59 61 65 74 78 78 88 104 123 126 116 97 92 132 109 115 21 126 121 138 131 115 85 97 29 79 92 89 106 149 175 144 175 162 126 80 104 128 154 168 203 239 195 128 90 266 188
61 61 59 59 64 68 72 69 71 81 85 100 48 20 83 94 327 146 122 141 122 98 101 121 127 14 30 113 110 153 179 195 160 160 156 100 39 170 160 194 283 215 165 131 164 229 181
65 64 59 58 57 56 55 57 56 52 41 82 178 353 109 88 42 335 104 120 99 180 147 163 113 253 115 113 135 173 139 216 97 164 168 154 154 172 128 126 255 173 157 207 206 174 166
73 68 62 58 56 56 63 62 60 52 52 48 46 1 30 81 117 13 92 94 156 188 137 96 134 146 159 99 156 113 155 154 164 205 142 184 177 173 176 202 224 212 233 220 172 159 199